Preview of NWS' New Version of Forecast
This preview is not operational and should not be used for support decisions.

Regional Weather Roundup (RWR)

Issued by National Weather Service (NWS)

                            
000
ASUS43 KDTX 210401
RWRMI 
MICHIGAN HOURLY REGIONAL WEATHER ROUNDUP
NATIONAL WEATHER SERVICE DETROIT/PONTIAC MI
1200 AM EDT SUN APR 21 2019

NOTE: "FAIR" INDICATES FEW OR NO CLOUDS BELOW 12,000 FEET WITH NO
SIGNIFICANT WEATHER AND/OR OBSTRUCTION TO VISIBILITY.

MIZ047>049-052>055-059>063-066>070-074>076-081>083-210500-
SOUTHEAST LOWER MICHIGAN
  
CITY           SKY/WX    TMP DP  RH WIND       PRES   REMARKS
ADRIAN         CLOUDY    42  39  89 CALM      29.85R                  
ALMA           FAIR      37  34  91 CALM      29.84S                  
ANN ARBOR      RAIN      42  41  96 W6        29.82R FOG              
BAD AXE        CLOUDY    41  40  94 CALM      29.80R                  
CARO           CLOUDY    41  40  96 CALM      29.81R                  
DETROIT CITY   CLOUDY    43  40  89 CALM      29.82R                  
DETROIT        CLOUDY    44  39  82 CALM      29.83R                  
FLINT          CLOUDY    42  41  96 NW6       29.82R                  
GROSSE ILE     CLOUDY    43  40  91 W3        29.81S                  
HILLSDALE      CLOUDY    42  39  90 N3        29.83R                  
HOWELL         CLOUDY    41  40  94 W5        29.82R                  

CITY           SKY/WX    TMP DP  RH WIND       PRES   REMARKS
JACKSON        CLOUDY    42  41  96 CALM      29.84R                  
LAMBERTVILLE   CLOUDY    43  42  96 CALM      29.84R                  
LANSING        FAIR      38  37  97 W5        29.84R WCI  34          
LAPEER         LGT RAIN  42  42 100 CALM      29.81R                  
MASON          MOCLDY    42  40  94 CALM      29.84R                  
MONROE         CLOUDY    44  43  97 CALM      29.83R                  
PONTIAC        LGT RAIN  42  42 100 CALM      29.81R FOG              
PORT HOPE        N/A     40  38  93 W5        29.78S                  
PORT HURON     CLOUDY    43  39  87 CALM      29.80S                  
TRI CITIES     FAIR      39  36  89 W7        29.82S WCI  34          
MIDLAND        FAIR      37  34  89 CALM      29.82S                  
TROY           CLOUDY    44  40  86 CALM      29.83S                  
SAGINAW HB     FAIR      41  39  93 W5        29.82R                  
$$
MIZ043>046-050>051-056>058-064>065-071>073-077>080-210500-
SOUTHWEST LOWER MICHIGAN
  
CITY           SKY/WX    TMP DP  RH WIND       PRES   REMARKS
BATTLE CREEK   FAIR      38  35  89 CALM      29.85R                  
BENTON HARBOR  FAIR      34  27  75 E3        29.86R                  
BIG RAPIDS     FAIR      44  37  77 CALM      29.84S                  
COLDWATER      CLOUDY    44  42  95 CALM      29.84S                  
FREMONT        FAIR      46  39  75 S3        29.85S                  
HOLLAND        FAIR      44  38  79 CALM      29.86R                  
GRAND RAPIDS   FAIR      43  37  79 SW3       29.85R                  
IONIA          FAIR      38  35  88 SW3       29.84S                  
KALAMAZOO      FAIR      42  37  82 CALM      29.85S                  
LUDINGTON      CLOUDY    39  29  67 CALM      29.83R                  
MARSHALL       FAIR      40  40 100 W3        29.84S                  
MOUNT PLEASANT FAIR      42  36  78 W3        29.83S                  
MUSKEGON       FAIR      46  35  65 S6        29.86R                  
SOUTH HAVEN    FAIR      37  31  78 CALM      29.86R                  
$$
MIZ016>042-210500-
NORTHERN LOWER MICHIGAN
  
CITY           SKY/WX    TMP DP  RH WIND       PRES   REMARKS
ALPENA         FAIR      35  33  92 W3        29.80R                  
BEAVER ISLAND  CLOUDY    43  27  52 CALM      29.81S                  
BELLAIRE       CLOUDY    38  32  77 CALM      29.83S                  
CADILLAC       FAIR      37  26  64 CALM      29.81S                  
CHARLEVOIX     CLOUDY    42  28  57 CALM      29.86R                  
FRANKFORT      CLOUDY    44  30  56 CALM      29.83S                  
GAYLORD        MOCLDY    37  18  46 CALM      29.81S                  
HARBOR SPRINGS CLOUDY    38  28  67 W3        29.82R                  
HOUGHTON LAKE  FAIR      43  31  62 W5        29.82S                  
MANISTEE       CLOUDY    39  32  76 CALM      29.83R                  
OSCODA         FAIR      33  25  73 CALM      29.80S                  
PELLSTON       CLOUDY    40  31  70 CALM      29.82R                  
ROGERS CITY    FAIR      38  26  62 SW5       29.80S WCI  34          
TRAVERSE CITY  CLOUDY    41  32  70 CALM      29.82S                  
$$
MIZ007>008-015-210500-
EASTERN UPPER MICHIGAN
  
CITY           SKY/WX    TMP DP  RH WIND       PRES   REMARKS
KINROSS        CLOUDY    48  22  35 W7        29.80S                  
MACKINAC ISLAN CLOUDY    47  14  27 W7        29.80S                  
NEWBERRY       CLOUDY    47  31  53 CALM      29.80S                  
S. S. MARIE    CLOUDY    45  29  53 SW3       29.79R                  
MUNISING         N/A     52  32  46 S9        29.77F                  
$$
MIZ004>006-011>014-085-210500-
CENTRAL UPPER MICHIGAN
  
CITY           SKY/WX    TMP DP  RH WIND       PRES   REMARKS
MANISTIQUE     CLOUDY   N/A N/A N/A W3        29.80S                  
ESCANABA       CLOUDY    45  25  45 S3        29.81F                  
SAWYER-GWINN   FAIR      47  16  29 S7        29.78F                  
$$
MIZ001>003-009>011-084-210500-
WESTERN UPPER MICHIGAN
  
CITY           SKY/WX    TMP DP  RH WIND       PRES   REMARKS
IRON MOUNTAIN  FAIR      48  30  49 SE3       29.78F                  
HOUGHTON       CLOUDY    48  29  47 CALM      29.75S                  
COPPER HARBOR    N/A     38  33  82 N3        29.76S                  
IRONWOOD       FAIR      55  36  48 SW3       29.76R                  
$$

ABBREVIATIONS USED IN REMARKS
   TC - TEMPERATURE IN CELSIUS
  WCI - WIND CHILL INDEX
   HX - HEAT INDEX
  VSB - VISIBILITY